This demonstration page uses our WeatherBlox Daily Observations layout. Learn more.

Left ArrowRight Arrow

38.88101, -77.10428

Hourly Observations for July 30, 2016

Temp ( °F °C ) Dew Point ( °F °C ) Humidity (%) Winds ( mph kmh ) Pressure ( in mb ) Visibility ( mi km ) Precip ( " mm )
12:52 am 00:52 Clear 81 27.2 73 22.8 77 77 SSW 3 6 29.94 1014 10 16.0934 0 0
1:52 am 01:52 Clear 79 26.1 74 23.3 85 85 S 6 9 29.94 1014 10 16.0934 0 0
2:25 am 02:25 Mostly Cloudy 79 26.1 74 23.3 85 85 S 6 9 29.94 1014 10 16.0934 0 0
2:52 am 02:52 Mostly Cloudy 79 26.1 74 23.3 85 85 S 5 7 29.93 1014 10 16.0934 0 0
3:52 am 03:52 Partly Cloudy 79 26.1 74 23.3 85 85 Calm 29.92 1013 10 16.0934 0 0
4:52 am 04:52 Mostly Cloudy 78 25.6 74 23.3 87 87 Calm 29.93 1014 10 16.0934 0 0
5:52 am 05:52 Mostly Cloudy 78 25.6 74 23.3 87 87 SE 5 7 29.94 1014 10 16.0934 0 0
6:52 am 06:52 Mostly Cloudy 79 26.1 74 23.3 85 85 S 5 7 29.97 1015 10 16.0934 0 0
7:52 am 07:52 Cloudy 79 26.1 74 23.3 85 85 S 7 11 29.98 1015 10 16.0934 0 0
8:52 am 08:52 Mostly Cloudy 81 27.2 74 23.3 79 79 S 8 13 29.98 1015 10 16.0934 0 0
9:52 am 09:52 Mostly Cloudy 82 27.8 73 22.8 74 74 S 8 13 29.98 1015 10 16.0934 0 0
10:52 am 10:52 Mostly Cloudy 85 29.4 74 23.3 70 70 S 9 15 29.99 1016 10 16.0934 0 0
11:52 am 11:52 Mostly Cloudy 87 30.6 72 22.2 61 61 S 13 20 29.98 1015 10 16.0934 0 0
12:43 pm 12:43 Mostly Cloudy with Rain 82 27.8 73 22.8 74 74 SSW 14 22 29.97 1015 4 6.43736 0.01 0.254
12:48 pm 12:48 Mostly Cloudy with Heavy Rain 82 28 73 23 74 74 SW 14 22 29.97 1015 2.5 4.02335 0.02 0.508
12:52 pm 12:52 Mostly Cloudy with Rain 82 27.8 74 23.3 77 77 SSW 14 22 29.98 1015 2.5 4.02335 0.04 1.016
12:56 pm 12:56 Cloudy with Light Rain 83 28.3 73 22.8 72 72 SSW 15 24 29.97 1015 4 6.43736 0.01 0.254
1:03 pm 13:03 Mostly Cloudy with Light Rain 82 27.8 75 23.9 79 79 SW 7 11 29.97 1015 10 16.0934 0.01 0.254
1:15 pm 13:15 Mostly Cloudy 86 30 74 23.3 67 67 S 16 26 29.97 1015 10 16.0934 0.01 0.254
1:52 pm 13:52 Mostly Cloudy 88 31.1 74 23.3 63 63 S 14 22 29.96 1015 10 16.0934 0.01 0.254
2:52 pm 14:52 Partly Cloudy 88 31.1 73 22.8 61 61 S 14 22 29.93 1014 10 16.0934 0 0.0254
3:52 pm 15:52 Mostly Cloudy 87 30.6 73 22.8 63 63 S 16 26 29.91 1013 10 16.0934 0 0
4:18 pm 16:18 Mostly Cloudy 88 31.1 73 22.8 61 61 S 14 22 29.91 1013 10 16.0934 0 0
4:52 pm 16:52 Mostly Cloudy 87 30.6 74 23.3 65 65 SSE 15 24 29.9 1013 10 16.0934 0 0
5:52 pm 17:52 Cloudy 84 28.9 73 22.8 70 70 S 20 31 29.92 1013 10 16.0934 0 0
6:23 pm 18:23 Cloudy 83 28.3 74 23.3 74 74 SSE 14 22 29.94 1014 10 16.0934 0 0
6:36 pm 18:36 Cloudy 83 28.3 74 23.3 74 74 S 20 31 29.91 1013 10 16.0934 0 0
6:52 pm 18:52 Cloudy 83 28.3 74 23.3 74 74 S 16 26 29.93 1013 10 16.0934 0 0
7:21 pm 19:21 Cloudy with Light Thunderstorms 82 27.8 74 23.3 77 77 S 15 24 29.94 1014 10 16.0934 0 0.0254
7:31 pm 19:31 Cloudy with Light Thunderstorms 82 27.8 75 23.9 79 79 S 15 24 29.94 1014 10 16.0934 0 0.0254
7:43 pm 19:43 Cloudy with Light Thunderstorms 80 26.7 75 23.9 85 85 SSW 12 19 29.94 1014 5 8.0467 0.02 0.508
7:52 pm 19:52 Cloudy with Light Thunderstorms 80 26.7 76 24.4 87 87 S 9 15 29.95 1014 4 6.43736 0.05 1.27
8:03 pm 20:03 Cloudy with Light Rain 80 26.7 76 24.4 87 87 SW 12 19 29.97 1015 7 11.26538 0.02 0.508
8:11 pm 20:11 Cloudy with Light Rain 78 25.6 74 23.3 87 87 W 15 24 29.97 1015 9 14.48406 0.03 0.762
8:17 pm 20:17 Cloudy with Light Rain 78 25.6 73 22.8 85 85 W 15 24 29.97 1015 10 16.0934 0.03 0.762
8:43 pm 20:43 Cloudy with Rain 75 23.9 71 21.7 88 88 NW 9 15 29.97 1015 5 8.0467 0.08 2.032
8:52 pm 20:52 Cloudy with Thunderstorms 75 23.9 71 21.7 88 88 W 6 9 29.98 1015 6 9.65604 0.11 2.794
9:29 pm 21:29 Cloudy with Light Rain 75 23.9 72 22.2 90 90 SE 5 7 29.97 1015 8 12.87472 0.1 2.54
9:52 pm 21:52 Cloudy with Light Rain 75 23.9 72 22.2 90 90 SSE 6 9 29.97 1015 10 16.0934 0.11 2.794
10:52 pm 22:52 Cloudy 75 23.9 73 22.8 94 94 ESE 3 6 29.96 1015 10 16.0934 0.01 0.254
11:41 pm 23:41 Cloudy 76 24.4 73 22.8 91 91 WSW 5 7 29.97 1015 9 14.48406 0 0
11:52 pm 23:52 Cloudy 76 24.4 73 22.8 91 91 WSW 3 6 29.98 1015 9 14.48406 0 0

Powered by AerisWeather